Hourly Data Report for March 27, 2012

All times are specified in Local Standard Time (LST). Add 1 hour to adjust for Daylight Saving Time where and when it is observed.

MIRAMICHI RCS
NEW BRUNSWICK

47°00'34.000" N
65°27'54.000" W
33.00 m
8100989
71744
ACQ

Download Data

Hourly Data (March 2012)
Hourly Data Report for March 27, 2012
TIME Temp Definition
°C
Dew Point Temp Definition
°C
Rel Hum Definition
%
Wind Dir Definition
10's deg

Wind Spd Definition
km/h
Visibility Definition
km
Stn Press Definition
kPa
Hmdx Definition


Wind Chill Definition


Weather Definition


00:00 -4.5 -10.8 61 34 17   100.01   -10 LegendNANA
01:00 -4.9 -10.0 67 33 17   100.05   -11 LegendNANA
02:00 -5.2 -9.0 75 33 13   100.11   -10 LegendNANA
03:00 -6.4 -9.0 82 33 17   100.16   -13 LegendNANA
04:00 -6.8 -10.2 77 34 15   100.24   -13 LegendNANA
05:00 -7.0 -11.2 72 33 19   100.32   -14 LegendNANA
06:00 -7.2 -11.9 69 33 19   100.44   -14 LegendNANA
07:00 -7.0 -13.1 62 34 20   100.55   -14 LegendNANA
08:00 -6.6 -13.8 57 34 19   100.65   -13 LegendNANA
09:00 -5.7 -14.5 50 34 20   100.72   -12 LegendNANA
10:00 -4.5 -14.3 46 34 20   100.76   -11 LegendNANA
11:00 -3.6 -14.1 44 35 22   100.74   -10 LegendNANA
12:00 -2.7 -14.4 40 34 20   100.71   -9 LegendNANA
13:00 -1.7 -14.9 36 35 24   100.70   -8 LegendNANA
14:00 -1.1 -15.9 31 35 24   100.73   -7 LegendNANA
15:00 -0.6 -15.6 31 35 20   100.82   -6 LegendNANA
16:00 -0.9 -16.0 31 33 19   100.91   -6 LegendNANA
17:00 -1.6 -16.0 32 34 20   101.01   -7 LegendNANA
18:00 -1.9 -16.6 31 34 15   101.07   -7 LegendNANA
19:00 -2.6 -17.4 31 33 17   101.10   -8 LegendNANA
20:00 -3.1 -17.5 32 33 11   101.11   -7 LegendNANA
21:00 -3.4 -17.5 33 34 9   101.14   -7 LegendNANA
22:00 -3.9 -17.3 34 33 6   101.14   -7 LegendNANA
23:00 -4.8 -16.4 40 29 7   101.12   -8 LegendNANA

Notes on Data Quality.

Legend

  • E = Estimated
  • M = Missing
  • NA = Not Available
Date modified: